TIME,DELAY(SENSOR),PRES,OXYGEN,RAWTEMP,T(OPTODE),TCPHASE,FLUOR,BETA(BETA700),BETA(BETA412),BETA(BETA440),CDOM,C(CSC),ED(ED411.90),ED(ED443.80),ED(ED489.40),ED(ED554.70),LU(LU412.20),LU(LU443.80),LU(LU489.40),LU(LU555.00),COMP,TILTX,TILTY,CHECK
1351288760,5805,878.6599731445312000,167.0608978271484400,433.6719055175781000,9.5738019943237300,38.9913101196289060,53,101,73,67,71,13383,2146962066,2147516717,2147287405,2147507593,2147092681,2146935204,2147703990,2147121965,2608,-1,9,3057
1351292356,5808,999.0499877929688000,200.4109039306640600,501.4920043945312500,7.4831972122192380,37.8998603820800800,52,101,72,66,71,13377,2146961371,2147515419,2147293257,2147519972,2147091666,2146931072,2147718692,2147120822,176,-1,8,248
1351295956,5808,1013.9699707031250000,209.3029022216797000,512.0020751953125000,7.1566529273986820,37.5486106872558600,52,101,72,66,71,13368,2146963218,2147516352,2147296292,2147518966,2147091474,2146921755,2147720283,2147121737,124,-1,8,13624
1351299556,5807,1014.6599731445312000,212.4107055664062500,512.5861206054688000,7.1384868621826170,37.3766708374023440,53,101,72,66,72,13377,2146965403,2147519497,2147294445,2147520768,2147089206,2146926354,2147720768,2147120493,3405,-1,9,34263
1351303156,5809,1023.1400146484375000,212.3562927246093800,514.1010742187500000,7.0913472175598145,37.4063796997070300,52,106,73,66,71,13372,2146963337,2147518089,2147294400,2147525339,2147091044,2146928100,2147718802,2147123309,3596,-1,8,32258
1351306756,5805,1021.7700195312500000,213.5760955810547000,515.6973876953125000,7.0416598320007320,37.3637809753418000,52,107,72,68,71,13368,2146959204,2147517604,2147297197,2147521298,2147090514,2146925284,2147721627,2147118006,2803,0,8,11546
1351310356,5804,1024.9799804687500000,215.4580993652343800,516.9317016601562000,7.0032272338867190,37.2775382995605500,52,104,73,66,72,13335,2146960036,2147517842,2147292982,2147523364,2147091904,2146930496,2147721627,2147119067,3070,-1,9,25509
1351313956,5808,1027.7299804687500000,217.1157073974609400,518.9124755859375000,6.9415311813354490,37.2178916931152340,53,103,71,67,71,13333,2146961033,2147517942,2147292736,2147520585,2147091620,2146919990,2147721380,2147124690,3184,-1,9,14504
1351317556,5808,1023.9099731445312000,216.0426025390625000,518.7686157226562000,6.9460148811340330,37.2764587402343750,52,102,74,66,71,13330,2146963026,2147515337,2147294153,2147524973,2147090797,2146922029,2147720274,2147122029,74,-1,9,42964
1351321156,5804,1025.2099609375000000,218.0319061279297000,519.6060791015625000,6.9199218750000000,37.1784286499023440,52,106,73,67,72,13331,2146961691,2147517878,2147294646,2147528137,2147089718,2146925504,2147719844,2147120228,2373,-1,9,2699
1351324756,5805,1025.4100341796875000,218.2261962890625000,519.7901000976562000,6.9141860008239750,37.1706314086914060,53,706,72,67,70,13325,2146962432,2147518738,2147294747,2147521060,2147090898,2146923510,2147721316,2147119753,3179,-1,9,57397
1351328356,5808,1026.0500488281250000,219.5384063720703000,521.4793701171875000,6.8615360260009770,37.1266212463378900,51,102,73,68,71,13319,2146959689,2147521782,2147294482,2147521810,2147090267,2146925019,2147724726,2147121929,248,-1,8,63877
1351331956,5809,1026.2500000000000000,219.6311950683593800,522.0078125000000000,6.8450651168823240,37.1308403015136700,53,101,72,68,71,13321,2146962249,2147517046,2147294390,2147524306,2147090550,2146926116,2147722413,2147124836,172,-1,9,6529
1351335556,5805,1027.8299560546875000,219.4656982421875000,522.2216186523438000,6.8383998870849610,37.1440086364746100,52,103,72,66,72,13321,2146963035,2147521581,2147294445,2147524800,2147092032,2146919542,2147720338,2147121837,3293,-1,9,7753
1351339156,5806,1033.9699707031250000,217.4524993896484400,519.1577758789062000,6.9338870048522950,37.2037086486816400,53,100,73,66,71,13323,2146960630,2147518317,2147295012,2147520841,2147090733,2146927771,2147721654,2147124022,3492,-1,8,24041
1351342756,5807,1039.5999755859375000,216.8244934082031200,518.2274780273438000,6.9628691673278810,37.2225303649902340,52,105,72,66,72,13323,2146963529,2147520045,2147295369,2147525577,2147089947,2146925248,2147718573,2147123172,3522,-1,9,58120
1351346356,5806,1037.2399902343750000,215.4888000488281200,517.5419921875000000,6.9842219352722170,37.2866592407226560,53,105,73,66,71,13321,2146961106,2147517184,2147296530,2147520338,2147090989,2146924955,2147723291,2147122880,3272,0,9,22408
1351349956,5805,1025.9599609375000000,212.5608978271484400,515.5277099609375000,7.0469422340393070,37.4194107055664060,52,100,71,66,72,13320,2146961481,2147520310,2147297252,2147523565,2147088640,2146927716,2147720374,2147120557,126,0,8,22412
1351353556,5806,1025.6700439453125000,214.5679016113281200,515.6793823242188000,7.0422182083129880,37.3065299987793000,53,100,71,67,71,13320,2146960630,2147517641,2147293915,2147520374,2147090486,2146926701,2147724077,2147122907,3498,-1,9,38042
1351357156,5809,1022.2999877929688000,214.2534027099609400,516.5692138671875000,7.0145158767700195,37.3405494689941400,53,103,72,66,72,13319,2146959158,2147515620,2147293421,2147522368,2147092324,2146919369,2147722916,2147122422,235,0,8,52972
1351360756,5805,1021.8599853515625000,214.7689056396484400,518.4459838867188000,6.9560642242431640,37.3440704345703100,52,101,73,68,71,13317,2146960694,2147519003,2147295369,2147525275,2147092123,2146925741,2147722496,2147122176,3370,-1,9,14995
1351364356,5807,1021.1300048828125000,215.7364044189453000,519.3312988281250000,6.9284830093383790,37.3044815063476560,52,100,72,66,71,13317,2146962962,2147515913,2147299465,2147520438,2147091949,2146927661,2147722294,2147123273,521,-1,8,50746
1351367956,5809,1024.1800537109375000,216.1661071777343800,519.1024780273438000,6.9356122016906740,37.2753715515136700,53,102,72,67,72,13312,2146957284,2147515520,2147295341,2147522678,2147091584,2146924269,2147721581,2147120530,489,-1,8,208
1351371556,5808,1017.5300292968750000,215.8526000976562500,520.3035888671875000,6.8981838226318360,37.3146095275878900,52,103,71,65,71,13305,2146959305,2147520027,2147296932,2147524059,2147091337,2146925851,2147722322,2147122806,62,0,8,12961
1351375156,5806,1024.4399414062500000,217.3838958740234400,519.5385131835938000,6.9220271110534670,37.2145690917968750,52,101,72,65,71,13316,2146960722,2147515145,2147296539,2147524571,2147086198,2146928649,2147718107,2147120329,2866,0,8,60445
1351378756,5806,1027.9899902343750000,215.8735961914062500,518.9052124023438000,6.9417600631713870,37.2892112731933600,53,102,73,66,71,13315,2146965220,2147514514,2147294528,2147526573,2147090166,2146925769,2147722331,2147121398,3407,0,8,42898
1351382356,5809,1029.7700195312500000,215.5659942626953000,516.8123168945312000,7.0069470405578610,37.2691993713378900,52,100,72,67,70,13315,2146960932,2147518656,2147293997,2147521444,2147088091,2146921600,2147719478,2147121344,2688,-1,8,8237
1351385956,5804,1033.1300048828125000,213.9199066162109400,515.3009033203125000,7.0540027618408200,37.3374900817871100,53,101,71,66,71,13315,2146960082,2147516507,2147296274,2147522240,2147089709,2146924160,2147725476,2147120621,3162,-1,9,10773
1351389556,5806,1029.9899902343750000,213.1092071533203000,514.8679199218750000,7.0674800872802730,37.3761482238769500,52,102,71,66,71,13311,2146961133,2147515456,2147292059,2147523894,2147091264,2146925147,2147722532,2147124041,3363,-1,9,55442
1351393156,5807,1030.1600341796875000,212.9832000732422000,515.4968261718750000,7.0479030609130860,37.3951301574707000,52,101,71,67,72,13305,2146960310,2147514459,2147294747,2147526006,2147090788,2146922660,2147719314,2147120292,262,0,8,40960
1351396756,5805,1032.3199462890625000,213.3072052001953000,516.1055908203125000,7.0289521217346190,37.3867988586425800,52,101,71,66,71,13303,2146962669,2147517028,2147298441,2147524022,2147090212,2146921837,2147723328,2147122816,3531,-1,8,42535
1351400356,5806,1030.1500244140625000,215.3540954589843800,517.1129150390625000,6.9975848197937010,37.2864608764648440,52,106,73,67,72,13304,2146960173,2147513014,2147295963,2147523328,2147090523,2146925613,2147718619,2147117622,3095,-1,8,63628
1351403956,5808,1009.8599853515625000,209.5868988037109400,509.8388061523437500,7.2239270210266110,37.4929199218750000,52,103,72,67,71,13300,2146963876,2147514870,2147295936,2147517229,2147090368,2146922121,2147717430,2147120749,58,0,8,27177
1351407556,5808,1005.8099975585938000,210.0149993896484400,511.6568908691406000,7.1673917770385740,37.5006904602050800,51,101,72,66,72,13299,2146962541,2147515840,2147292013,2147522038,2147090112,2146922797,2147713700,2147123236,140,0,9,850
1351411156,5806,1009.3900146484375000,209.7178955078125000,509.8219909667969000,7.2244510650634770,37.4855194091796900,52,101,73,67,71,13301,2146963200,2147517513,2147293229,2147522688,2147093403,2146923995,2147719488,2147120210,286,0,9,63490
1351414756,5806,1003.7299804687500000,210.9055938720703000,511.8988037109375000,7.1598658561706540,37.4519004821777340,53,101,72,67,71,13296,2146959213,2147515510,2147295899,2147519177,2147088667,2146923108,2147721526,2147121865,3347,-1,9,39137
1351418356,5810,1003.1699829101562000,210.8235931396484400,512.1580200195312000,7.1518030166625980,37.4611396789550800,53,103,72,67,72,13297,2146960301,2147515675,2147293284,2147519588,2147088521,2146919396,2147720228,2147125430,32,0,8,26409
1351421956,5804,1012.2199707031250000,210.7431945800781200,511.8734130859375000,7.1606540679931640,37.4616012573242200,53,102,72,67,71,13296,2146960813,2147514550,2147293302,2147522322,2147091328,2146926811,2147722230,2147120374,3496,-1,9,48225
1351425556,5805,1013.6599731445312000,207.9203033447265600,509.6465148925781000,7.2299079895019530,37.5888214111328100,52,100,71,68,71,13296,2146959460,2147517284,2147295725,2147519661,2147091894,2146921408,2147719241,2147122285,3445,-1,9,30101
1351429156,5807,1013.0999755859375000,207.1744995117187500,508.4722900390625000,7.2664079666137695,37.6122283935546900,51,100,72,66,71,13290,2146963995,2147517202,2147293202,2147522770,2147086564,2146918555,2147719433,2147119378,643,0,8,24554
1351431955,5805,1020.5599975585938000,207.1009979248047000,507.1581115722656000,7.3072500228881840,37.5938110351562500,51,104,72,67,71,13332,2146960210,2147517924,2147292772,2147522934,2147089947,2146921197,2147723017,2147120832,2898,-1,8,23109
